ARIANE 5 DEB (SYLDA), 54744

Orbit data source: Space-Track

ARIANE 5 DEB (SYLDA), 54744 is space debris in HEO originally from a launch on Tue, 13 Dec 2022 UTC launched from the French Guiana (FRGUI). Debris objects in space refer to the collection of defunct objects orbiting the Earth. Examples of debris include non-operational satellites, rocket bodies, and fragments generated from explosions, collisions, or faulty payload assembly.

Loading next visibility...
Identifier
54744, 2022-170D
Orbit
HEO
Last TLE update
1 day ago
Origin
Manufacturer
ADS/Bremen
Mission
Spacecraft
Bus & Motor
SYLDA 5, Unknown motor
Mass
440 kg wet, 440 kg dry
Launch date (UTC)
2022-12-13 (3 years ago)
Launch vehicle
Unknown
Launch site
French Guiana (FRGUI)
Object type
Payload
Rocket body
Debris
Shape & HBR
Cyl, 2.8 m
Radar Cross Section
27.391 m², Large (>1 m²)

Expand to show TLE details & history

TLE from 1 day ago
0 ARIANE 5 DEB (SYLDA)
1 54744U 22170D   25199.11858906  .00036698  00000-0  40210-2 0  9991
2 54744   6.2281 247.9718 5859487 102.5879 325.4089  4.28214621 33592
Epoch: 2025-07-18T02:50Z
TLE epoch observation values (Epoch: 2025-07-18T02:50:46.094Z)
Latitude
Longitude
-90.79752°
Altitude
5,662.689 km
Speed
6.428 km/s
True Right ascension
16h 32m 16s
True Declination
0° 00' 00"
Sunlit
Object was in daylight at epoch
Visualization orbit readout
Latitude
-6.13553°
Longitude
-171.6784°
Altitude
18,913.317 km
Speed
2.576 km/s
Apparent Right ascension
10h 24m 46s
Apparent Declination
-14° 45' 49"
Sunlit
Object is in daylight
Visualization observer readout
Local Sidereal Time
17:11:59
Azimuth
265.857° W
Elevation
-18.373°
Doppler factor
1
Orbital elements
Apogee altitude
19,034.781 km
Perigee altitude
256.536 km
Semi-major axis
16,023.796 km
Eccentricity
0.58595
Inclination
6.2281°
RAAN
247.9718°
Arg. of periapsis
102.5879°
True anomaly
257.43612°
Mean anomaly
325.4089°
Eccentric anomaly
294.97606°
Mean motion
1.07003 °/min
Orbital period
336.44 mins
BSTAR
0.004021
Loading maneuver chart data...
Loading SW <> Apogee altitude chart data...
Loading historical data...
Loading historical data...
Loading historical data...
Loading historical data...
Loading historical data...
Loading historical data...
Loading historical data...
Other satellites on launch #170 in the year 2022 (2022-12-13 UTC)
|